HLF8845 ZSJN-ZUUU

Flight info

Callsign HLF8845
Flight time N/A
Altitude 34100
Route EXUVU W4 LIMGI W152 BUBDU W276 ANRUG W279 ONEBA G212 SUBUL W230 AKDIK
Aircraft B738/M-SDE2E3FGHIJ1RWXY/LB1

Departure

Time 2026-04-22 05:58
Airport Jinan Yaoqiang International Airport (ZSJN)

Arrival

Time N/A
Airport Chengdu Shuangliu International Airport (ZUUU)
Time Latitude Longitude Altitude Speed Heading
2026-04-22 05:35 36.83874 117.21080 84 ft 0 kts 270°
2026-04-22 05:49 36.83874 117.21082 85 ft 2 kts 270°
2026-04-22 05:50 36.83874 117.21102 88 ft 2 kts 270°
2026-04-22 05:50 36.83874 117.21122 80 ft 2 kts 270°
2026-04-22 05:50 36.83874 117.21143 83 ft 3 kts 302°
2026-04-22 05:50 36.83860 117.21155 84 ft 3 kts 341°
2026-04-22 05:51 36.83846 117.21168 85 ft 3 kts 319°
2026-04-22 05:51 36.83833 117.21182 85 ft 3 kts 298°
2026-04-22 05:51 36.83817 117.21188 80 ft 3 kts
2026-04-22 05:51 36.83799 117.21188 83 ft 3 kts 355°
2026-04-22 05:54 36.83821 117.21187 81 ft 5 kts 358°
2026-04-22 05:54 36.83857 117.21186 83 ft 5 kts 359°
2026-04-22 05:54 36.83892 117.21185 82 ft 5 kts 360°
2026-04-22 05:54 36.83936 117.21185 83 ft 10 kts 360°
2026-04-22 05:55 36.84021 117.21185 81 ft 13 kts 360°
2026-04-22 05:55 36.84107 117.21199 82 ft 12 kts 34°
2026-04-22 05:55 36.84117 117.21224 80 ft 7 kts 84°
2026-04-22 05:55 36.84118 117.21294 83 ft 8 kts 90°
2026-04-22 05:56 36.84117 117.21366 84 ft 8 kts 91°
2026-04-22 05:56 36.84117 117.21437 81 ft 8 kts 91°
2026-04-22 05:56 36.84116 117.21505 84 ft 8 kts 90°
2026-04-22 05:56 36.84127 117.21568 89 ft 7 kts 54°
2026-04-22 05:57 36.84174 117.21594 87 ft 7 kts
2026-04-22 05:57 36.84190 117.21594 87 ft 0 kts
2026-04-22 05:57 36.84201 117.21595 91 ft 10 kts
2026-04-22 05:57 36.84548 117.21597 88 ft 98 kts 360°
2026-04-22 05:58 36.85545 117.21608 316 ft 171 kts
2026-04-22 05:58 36.86796 117.21650 1526 ft 193 kts
2026-04-22 05:58 36.88171 117.21604 2885 ft 192 kts 360°
2026-04-22 05:58 36.89431 117.21319 4187 ft 198 kts 354°
2026-04-22 05:59 36.90973 117.21443 4024 ft 240 kts
2026-04-22 05:59 36.92683 117.21545 4830 ft 245 kts
2026-04-22 05:59 36.94376 117.21578 5827 ft 244 kts
2026-04-22 05:59 36.96091 117.21594 6676 ft 247 kts
2026-04-22 06:00 36.97820 117.21601 7556 ft 250 kts
2026-04-22 06:00 36.99552 117.21602 8555 ft 248 kts
2026-04-22 06:00 37.01295 117.21603 9462 ft 252 kts
2026-04-22 06:00 37.03057 117.21604 10343 ft 256 kts
2026-04-22 06:01 37.04928 117.21606 10780 ft 285 kts
2026-04-22 06:01 37.07026 117.21581 11015 ft 318 kts 356°
2026-04-22 06:01 37.09186 117.20782 11552 ft 339 kts 333°
2026-04-22 06:01 37.11005 117.18816 12535 ft 347 kts 307°
2026-04-22 06:02 37.11943 117.16039 13646 ft 353 kts 281°
2026-04-22 06:02 37.12022 117.12957 14635 ft 355 kts 270°
2026-04-22 06:02 37.11956 117.09901 15577 ft 357 kts 270°
2026-04-22 06:02 37.11909 117.06742 16541 ft 358 kts 270°
2026-04-22 06:03 37.11891 117.03656 17470 ft 360 kts 271°
2026-04-22 06:03 37.12032 117.00521 18370 ft 362 kts 275°
2026-04-22 06:03 37.12308 116.97383 19098 ft 364 kts 276°
2026-04-22 06:03 37.12613 116.94225 19523 ft 365 kts 276°
2026-04-22 06:04 37.12903 116.91061 19660 ft 365 kts 275°
2026-04-22 06:04 37.13174 116.87875 19744 ft 371 kts 275°
2026-04-22 06:04 37.13437 116.84647 20411 ft 373 kts 275°
2026-04-22 06:04 37.13431 116.81419 21280 ft 370 kts 262°
2026-04-22 06:05 37.12744 116.78330 22149 ft 369 kts 249°
2026-04-22 06:05 37.11746 116.75363 22914 ft 370 kts 247°
2026-04-22 06:05 37.10692 116.72404 23579 ft 373 kts 247°
2026-04-22 06:05 37.09635 116.69425 24161 ft 375 kts 247°
2026-04-22 06:06 37.08595 116.66429 24769 ft 375 kts 248°
2026-04-22 06:06 37.07566 116.63423 25381 ft 376 kts 248°
2026-04-22 06:06 37.06539 116.60407 25961 ft 377 kts 248°
2026-04-22 06:06 37.05509 116.57384 26521 ft 378 kts 248°
2026-04-22 06:07 37.04476 116.54356 27066 ft 379 kts 248°
2026-04-22 06:07 37.03437 116.51316 27576 ft 381 kts 248°
2026-04-22 06:07 37.02392 116.48259 28080 ft 383 kts 248°
2026-04-22 06:07 37.01344 116.45197 28586 ft 384 kts 248°
2026-04-22 06:08 37.00292 116.42126 29080 ft 385 kts 248°
2026-04-22 06:08 36.99233 116.39039 29567 ft 386 kts 248°
2026-04-22 06:08 36.98173 116.35951 30043 ft 388 kts 248°
2026-04-22 06:08 36.97106 116.32846 30405 ft 389 kts 248°
2026-04-22 06:09 36.96037 116.29740 30790 ft 389 kts 248°
2026-04-22 06:09 36.94968 116.26636 31317 ft 386 kts 248°
2026-04-22 06:09 36.93914 116.23580 31961 ft 380 kts 249°
2026-04-22 06:09 36.92874 116.20569 32590 ft 375 kts 249°
2026-04-22 06:10 36.91847 116.17596 33157 ft 372 kts 249°
2026-04-22 06:10 36.90826 116.14643 33664 ft 369 kts 249°
2026-04-22 06:10 36.89811 116.11709 34154 ft 366 kts 249°
2026-04-22 06:10 36.88804 116.08801 34545 ft 365 kts 249°
2026-04-22 06:11 36.87793 116.05884 34844 ft 366 kts 249°
2026-04-22 06:11 36.86783 116.02971 35159 ft 366 kts 249°
2026-04-22 06:11 36.85763 116.00035 35384 ft 369 kts 250°
2026-04-22 06:11 36.84739 115.97086 35612 ft 372 kts 250°
2026-04-22 06:12 36.83706 115.94119 35840 ft 373 kts 250°
2026-04-22 06:12 36.82669 115.91143 36092 ft 374 kts 250°
2026-04-22 06:12 36.80591 115.85185 36080 ft 373 kts 250°
2026-04-22 06:13 36.78523 115.79273 36094 ft 371 kts 250°
2026-04-22 06:13 36.76808 115.74386 36096 ft 369 kts 250°
2026-04-22 06:14 36.74414 115.67577 36097 ft 368 kts 250°
2026-04-22 06:14 36.72691 115.62683 36094 ft 368 kts 249°
2026-04-22 06:15 36.70296 115.55894 36088 ft 368 kts 249°
2026-04-22 06:15 36.68565 115.50997 36092 ft 369 kts 249°
2026-04-22 06:16 36.66508 115.45183 36091 ft 369 kts 249°
2026-04-22 06:16 36.64430 115.39323 36088 ft 370 kts 249°
2026-04-22 06:17 36.62345 115.33455 36089 ft 371 kts 249°
2026-04-22 06:17 36.60252 115.27576 36095 ft 372 kts 249°
2026-04-22 06:18 36.58155 115.21690 36096 ft 372 kts 249°
2026-04-22 06:18 36.55852 115.15916 36099 ft 376 kts 242°
2026-04-22 06:19 36.52584 115.10780 36084 ft 384 kts 231°
2026-04-22 06:19 36.48693 115.06205 36085 ft 385 kts 230°
2026-04-22 06:20 36.44800 115.01647 36081 ft 384 kts 230°
2026-04-22 06:20 36.40929 114.97084 36085 ft 383 kts 230°
2026-04-22 06:21 36.37127 114.92466 36077 ft 379 kts 234°
2026-04-22 06:21 36.34161 114.87166 36088 ft 372 kts 244°
2026-04-22 06:22 36.31576 114.81605 36080 ft 372 kts 243°
2026-04-22 06:22 36.28962 114.76055 36079 ft 373 kts 243°
2026-04-22 06:23 36.26298 114.70496 36087 ft 379 kts 243°
2026-04-22 06:23 36.23554 114.64899 36084 ft 384 kts 242°
2026-04-22 06:24 36.19383 114.56414 36080 ft 385 kts 242°
2026-04-22 06:25 36.16605 114.50762 36079 ft 384 kts 242°
2026-04-22 06:25 36.13828 114.45116 36083 ft 384 kts 242°
2026-04-22 06:26 36.11051 114.39477 36077 ft 384 kts 242°
2026-04-22 06:26 36.08276 114.33852 36078 ft 383 kts 242°
2026-04-22 06:27 36.05499 114.28231 36083 ft 383 kts 242°
2026-04-22 06:27 36.02720 114.22616 36080 ft 383 kts 242°
2026-04-22 06:28 35.99941 114.17010 36084 ft 383 kts 242°
2026-04-22 06:28 35.97162 114.11413 36083 ft 382 kts 242°
2026-04-22 06:29 35.94377 114.05814 36084 ft 383 kts 242°
2026-04-22 06:29 35.91592 114.00222 36083 ft 383 kts 242°
2026-04-22 06:30 35.88803 113.94632 36075 ft 382 kts 242°
2026-04-22 06:30 35.86015 113.89054 36078 ft 382 kts 241°
2026-04-22 06:31 35.83227 113.83485 36077 ft 382 kts 241°
2026-04-22 06:31 35.80438 113.77923 36089 ft 381 kts 241°
2026-04-22 06:32 35.77672 113.72415 36090 ft 381 kts 241°
2026-04-22 06:32 35.74878 113.66860 36079 ft 382 kts 241°
2026-04-22 06:33 35.72073 113.61293 36090 ft 383 kts 241°
2026-04-22 06:33 35.69267 113.55730 36077 ft 383 kts 242°
2026-04-22 06:34 35.66456 113.50167 36076 ft 383 kts 241°
2026-04-22 06:34 35.63645 113.44612 36015 ft 382 kts 241°
2026-04-22 06:35 35.60842 113.39082 36038 ft 380 kts 241°
2026-04-22 06:35 35.58093 113.33524 36064 ft 381 kts 242°
2026-04-22 06:36 35.55353 113.27939 36072 ft 383 kts 242°
2026-04-22 06:36 35.52592 113.22332 36063 ft 384 kts 242°
2026-04-22 06:37 35.49821 113.16722 36066 ft 385 kts 242°
2026-04-22 06:37 35.47038 113.11100 36067 ft 386 kts 242°
2026-04-22 06:38 35.44246 113.05472 36061 ft 387 kts 241°
2026-04-22 06:38 35.41447 112.99836 36060 ft 387 kts 242°
2026-04-22 06:39 35.38647 112.94210 36057 ft 386 kts 241°
2026-04-22 06:39 35.35856 112.88609 36063 ft 384 kts 241°
2026-04-22 06:40 35.33071 112.83028 36052 ft 384 kts 241°
2026-04-22 06:40 35.30287 112.77458 36053 ft 384 kts 241°
2026-04-22 06:41 35.27500 112.71891 36054 ft 384 kts 241°
2026-04-22 06:41 35.24703 112.66313 36054 ft 385 kts 241°
2026-04-22 06:42 35.21900 112.60729 36046 ft 384 kts 241°
2026-04-22 06:42 35.19107 112.55158 36055 ft 385 kts 241°
2026-04-22 06:43 35.16337 112.49566 36054 ft 385 kts 241°
2026-04-22 06:43 35.13583 112.44006 36046 ft 384 kts 241°
2026-04-22 06:44 35.10805 112.38417 36044 ft 373 kts 241°
2026-04-22 06:44 35.09505 112.35815 35921 ft 357 kts 241°
2026-04-22 06:44 35.08136 112.33295 35072 ft 360 kts 236°
2026-04-22 06:44 35.06591 112.30808 33603 ft 376 kts 238°
2026-04-22 06:45 35.04991 112.28225 32521 ft 388 kts 224°
2026-04-22 06:45 35.02467 112.27161 32392 ft 406 kts 184°
2026-04-22 06:45 34.99579 112.27689 31181 ft 422 kts 183°
2026-04-22 06:45 34.96714 112.28122 30963 ft 413 kts 178°
2026-04-22 06:46 34.93922 112.28835 30430 ft 409 kts 177°
2026-04-22 06:46 34.91229 112.30085 28136 ft 433 kts 149°
2026-04-22 06:46 34.88953 112.33080 23309 ft 542 kts 142°
2026-04-22 06:46 34.86077 112.35778 22753 ft 505 kts 148°
2026-04-22 06:47 34.83287 112.38228 22260 ft 481 kts 148°
2026-04-22 06:47 34.80663 112.40561 21929 ft 458 kts 144°
2026-04-22 06:47 34.78166 112.42859 18384 ft 455 kts 158°
2026-04-22 06:47 34.75123 112.42324 13264 ft 477 kts 218°
2026-04-22 06:48 34.73253 112.39221 9600 ft 452 kts 254°
2026-04-22 06:48 34.72926 112.35543 7191 ft 432 kts 275°
2026-04-22 06:48 34.74021 112.32417 6667 ft 387 kts 320°
2026-04-22 06:48 34.76144 112.30816 6227 ft 349 kts 341°
2026-04-22 06:49 34.78449 112.30394 5740 ft 326 kts
2026-04-22 06:49 34.80246 112.31794 5480 ft 319 kts 70°
2026-04-22 06:49 34.79856 112.34287 4677 ft 319 kts 133°
2026-04-22 06:49 34.78170 112.36061 3461 ft 326 kts 138°
2026-04-22 06:50 34.76763 112.38047 3451 ft 293 kts 119°
2026-04-22 06:50 34.76238 112.40311 3516 ft 261 kts 90°
2026-04-22 06:50 34.76449 112.42359 3406 ft 245 kts 76°
2026-04-22 06:50 34.76920 112.44388 2664 ft 252 kts 72°
2026-04-22 06:51 34.77225 112.46465 2262 ft 242 kts 105°
2026-04-22 06:51 34.76302 112.47733 2864 ft 189 kts 158°
2026-04-22 06:51 34.74974 112.47680 2043 ft 211 kts 213°
2026-04-22 06:51 34.74455 112.46174 1872 ft 194 kts 274°
2026-04-22 06:52 34.74557 112.44575 1620 ft 186 kts 273°
2026-04-22 06:52 34.74581 112.43045 1556 ft 171 kts 267°
2026-04-22 06:52 34.74554 112.41732 1490 ft 138 kts 270°
2026-04-22 06:52 34.74489 112.40625 1117 ft 126 kts 262°
2026-04-22 06:53 34.74309 112.39634 876 ft 109 kts 254°
2026-04-22 06:53 34.74156 112.38914 868 ft 68 kts 255°
2026-04-22 06:53 34.74051 112.38465 854 ft 27 kts 232°
2026-04-22 06:53 34.73941 112.38447 862 ft 16 kts 166°
2026-04-22 06:54 34.73833 112.38473 858 ft 15 kts 185°
2026-04-22 06:54 34.73760 112.38454 860 ft 0 kts 168°